Weather in Kireyevo

Russia / Volgograd Oblast     50°00′37″N   44°28′56″E
temp.,
°C
wind,
m/s
gust,
m/s
humid.,
%
clouds,
%
prec.,
mm/h
press.,
hPa
HPBL,
m
22 may, sun
sun2200:00+9s3785100 0.0 1007311
03:00+9se4986100 0.0 1004398
06:00+9sse61098100 1.7 999408
09:00+12sw61296100 6.3 996696
12:00+13wnw3891100 0.7 996589
15:00+14wsw1686100 1.8 995604
18:00+15wnw5983100 0.9 995767
21:00+10nne249799 2.8 99696
23 may, mon
mon2300:00+9sse119699 0.3 997118
03:00+9sw259894 1.1 997234
06:00+10wnw2594100 0.6 997436
09:00+8ne569092 1.2 999448
12:00+9n468080 0.2 1002632
15:00+10n5772100 0.3 1003802
18:00+12nnw46585 0.0 10041293
21:00+7nnw497493 0.0 1007197
24 may, tue
tue2400:00+5nnw347872 0.0 100871
03:00+3nw338381 0.0 100951
06:00+5nw367315 0.0 1010226
09:00+11wnw45555 0.0 10101006
12:00+14wnw564758 0.0 10091967
15:00+16wnw674189 0.0 10082337
18:00+14w475647 0.0 1009509
21:00+11wsw41062100 0.0 1011248
25 may, wed
wed2500:00+9w487464 0.1 1011203
03:00+7wnw410875 0.1 1012201
06:00+8nw357890 0.0 1013192
09:00+12wnw466870 0.0 1013993
12:00+12nw785990 0.2 10141268
15:00+13nw6749100 0.3 10151938
18:00+11nnw4757100 0.0 10161288
21:00+8nnw226746 0.0 101733
26 may, thu
thu2600:00+7nw2370100 0.0 101883
03:00+8nw2268100 0.0 101862
06:00+9w256938 0.0 1018338
09:00+13wnw46589 0.0 10181029
12:00+17w595327 0.0 10161495
15:00+19w594978 0.1 10152174
18:00+16sw476833 0.4 1013153
21:00+14sw51270100 0.6 1012260